Weather History for Saint Peters, PE

Change the Weather History Date:

Friday, October 5, 2012

  Actual Average Record
Temperature  
Mean Temperature 56 °F -  
Max Temperature 61 °F - - ()
Min Temperature 50 °F - - ()
Degree Days  
Heating Degree Days 10    
Growing Degree Days 6 (Base 50)    
Moisture  
Dew Point 50 °F    
Average Humidity 87    
Maximum Humidity 97    
Minimum Humidity 59    
Precipitation  
Precipitation 0.01 in - - ()
Sea Level Pressure  
Sea Level Pressure 29.97 in    
Wind  
Wind Speed 3 mph ()    
Max Wind Speed 6 mph    
Max Gust Speed -    
T = Trace of Precipitation, MM = Missing Value Source: Averaged Metar Reports

Daily Weather History Graph

Daily Weather History Graph

Search for Another Location

Airport:

Trip Planner

Search our weather history database for the weather conditions in past years. The results will help you decide how hot, cold, wet, or windy it might be!

Date:

Astronomy

Oct. 05, 2012 Rise Set
Actual Time 7:14 AM ADT 6:41 PM ADT
Civil Twilight 6:44 AM ADT 7:11 PM ADT
Nautical Twilight 6:09 AM ADT 7:46 PM ADT
Astronomical Twilight 5:34 AM ADT 8:21 PM ADT
Moon 9:44 PM ADT (10/5) 12:35 PM ADT (10/5)
Length of Visible Light 12h 26m
Length of Day
11h 26m
Waning Gibbous, 74% of the Moon is Illuminated
Oct 5
Waning Gibbous
Oct 8
Last Quarter
Oct 15
New
Oct 22
First Quarter
Oct 29
Full

Hourly Weather History & Observations

Time (ADT) Temp. Dew Point Humidity Pressure Visibility Wind Dir Wind Speed Gust Speed Precip Events Conditions
12:00 AM 51.1 °F 49.8 °F 95% 30.06 in - SSE 1.2 mph - N/A   Unknown
1:00 AM 50.9 °F 49.8 °F 96% 30.05 in - SW 3.5 mph - N/A   Unknown
2:00 AM 50.5 °F 49.5 °F 96% 30.03 in - West 1.2 mph - N/A   Unknown
3:00 AM 51 °F 50 °F 94% 30.03 in - West 3.5 mph - -  
3:00 AM 50.7 °F 49.8 °F 97% 30.03 in - West 3.5 mph - N/A   Unknown
4:00 AM 51.3 °F 50.4 °F 97% 30.01 in - WSW 2.3 mph - N/A   Unknown
5:00 AM 51.6 °F 50.7 °F 97% 30.00 in - NW 2.3 mph - N/A   Unknown
6:00 AM 51.3 °F 50.4 °F 97% 29.99 in - WNW 2.3 mph - N/A   Unknown
7:00 AM 51.3 °F 50.4 °F 97% 29.99 in - South 3.5 mph - N/A   Unknown
8:00 AM 50.4 °F 49.5 °F 97% 29.95 in - NNW 2.3 mph - N/A   Unknown
9:00 AM 51.8 °F 50.7 °F 96% 29.97 in - NW 4.6 mph - 0.01 in   Unknown
10:00 AM 54.5 °F 52.2 °F 92% 29.98 in - West 4.6 mph - N/A   Unknown
11:00 AM 54.7 °F 51.1 °F 88% 29.97 in - West 5.8 mph - N/A   Unknown
12:00 PM 56.1 °F 50.2 °F 80% 29.96 in - WNW 3.5 mph - N/A   Unknown
1:00 PM 57.6 °F 50.4 °F 77% 29.95 in - NW 5.8 mph - N/A   Unknown
2:00 PM 59.4 °F 49.8 °F 71% 29.93 in - North 4.6 mph - N/A   Unknown
3:00 PM 60 °F 49 °F 59% 29.93 in - North 4.6 mph - -  
3:00 PM 59.9 °F 49.3 °F 68% 29.93 in - North 4.6 mph - N/A   Unknown
4:00 PM 59.5 °F 49.3 °F 69% 29.92 in - North 3.5 mph - N/A   Unknown
5:00 PM 61.0 °F 49.8 °F 67% 29.92 in - North 2.3 mph - N/A   Unknown
6:00 PM 56.3 °F 50.7 °F 82% 29.92 in - North 3.5 mph - N/A   Unknown
7:00 PM 54.3 °F 50.4 °F 86% 29.91 in - East 1.2 mph - N/A   Unknown
8:00 PM 54.1 °F 51.1 °F 89% 29.92 in - South 3.5 mph - N/A   Unknown
9:00 PM 53 °F 51 °F 90% 29.93 in - SSW 3.5 mph - -  
9:00 PM 53.4 °F 50.9 °F 91% 29.93 in - SSW 3.5 mph - N/A   Unknown
10:00 PM 54.1 °F 50.0 °F 86% 29.93 in - South 3.5 mph - N/A   Unknown
11:00 PM 54.5 °F 51.3 °F 89% 29.93 in - SSW 4.6 mph - N/A   Unknown